Tracking 17925 objects as of 22-January-2017
HD Live streaming from Space Station
objects crossing your sky now

OXP 1

Track OXP 1 now!
10-day predictions
OXP 1 is classified as:


NORAD ID: 22489
Int'l Code: 1993-009A
Perigee: 720.7 km
Apogee: 778.7 km
Inclination: 25.0 °
Period: 99.7 minutes
Semi major axis: 7120 km
RCS: 1.9581 m2 (large)
Launch date: February 9, 1993
Source: United States (US)
Launch site: AIR FORCE EASTERN TEST RANGE (AFETR)
Your satellite tracking list
Your tracking list is empty





NASA's NSSDC Master Catalog

Two Line Element Set (TLE):
1 22489U 93009A   17021.71494776  .00000248  00000-0  17940-4 0  9991
2 22489  24.9648 131.1394 0040705 229.7057 129.9888 14.44835048264323
Source of the keplerian elements: AFSPC